This demonstration page uses our WeatherBlox Daily Observations layout. Learn more.

Left ArrowRight Arrow

38.20091, -84.87328

Hourly Observations for February 4, 2018

Temp ( °F °C ) Dew Point ( °F °C ) Humidity (%) Winds ( mph kmh ) Pressure ( in mb ) Visibility ( mi km ) Precip ( " mm )
12:53 am 00:53 Cloudy 42 5.6 17 -8.3 36 36 SSE 7 11 29.97 1015 10 16 0.00 0.00
1:53 am 01:53 Cloudy 42 5.6 18 -7.8 38 38 S 10 17 29.96 1015 10 16 0.00 0.00
2:53 am 02:53 Cloudy 39 3.9 28 -2.2 65 65 SW 21 33 29.98 1015 10 16 0.00 0.00
3:53 am 03:53 Cloudy with Light Rain 35 1.7 31 -0.6 85 85 S 6 9 29.96 1015 8 13 0.02 0.51
4:00 am 04:00 Cloudy with Light Rain 35 1.7 31 -0.6 85 85 S 8 13 29.97 1015 7 11 0.00 0.03
4:08 am 04:08 Cloudy with Light Rain 35 1.7 31 -0.6 85 85 S 8 13 29.97 1015 7 11 0.00 0.03
4:53 am 04:53 Cloudy with Light Snow 34 1.1 31 -0.6 89 89 SSE 6 9 29.92 1013 4 6 0.02 0.51
5:19 am 05:19 Cloudy with Light Snow 34 1.1 31 -0.6 89 89 SSE 6 9 29.94 1014 3 4 0.01 0.25
5:40 am 05:40 Cloudy with Light Snow 33 0.6 31 -0.6 92 92 SSE 6 9 29.91 1013 2 2 0.02 0.51
5:53 am 05:53 Cloudy with Light Snow 33 0.6 31 -0.6 92 92 SSE 5 7 29.90 1013 2 3 0.02 0.51
6:09 am 06:09 Cloudy with Light Snow 33 0.6 30 -1.1 89 89 SSE 5 7 29.91 1013 1 2 0.00 0.03
6:30 am 06:30 Cloudy with Light Snow 33 0.6 31 -0.6 92 92 SSE 5 7 29.91 1013 1 2 0.01 0.25
6:53 am 06:53 Cloudy with Light Snow 33 0.6 30 -1.1 89 89 SSE 6 9 29.90 1013 2 2 0.01 0.25
7:10 am 07:10 Cloudy with Light Snow 33 0.6 30 -1.1 89 89 SSE 7 11 29.91 1013 3 4 0.01 0.25
7:16 am 07:16 Cloudy with Light Snow 33 0.6 30 -1.1 89 89 SSE 7 11 29.91 1013 3 5 0.02 0.51
7:32 am 07:32 Cloudy with Light Snow 33 0.6 30 -1.1 89 89 S 6 9 29.91 1013 3 4 0.03 0.76
7:39 am 07:39 Cloudy with Light Snow 33 0.6 31 -0.6 92 92 S 5 7 29.91 1013 3 4 0.03 0.76
7:53 am 07:53 Cloudy with Mist and Fog 33 0.6 31 -0.6 92 92 SSE 5 7 29.90 1013 3 5 0.04 1.02
8:05 am 08:05 Cloudy with Light Snow 33 0.6 30 -1.1 89 89 SSE 6 9 29.91 1013 2 3 0.01 0.25
8:25 am 08:25 Cloudy with Mist and Fog 33 0.6 31 -0.6 92 92 SSE 6 9 29.91 1013 3 5 0.02 0.51
8:53 am 08:53 Cloudy with Mist and Fog 34 1.1 31 -0.6 89 89 SSE 7 11 29.88 1012 4 6 0.03 0.76
9:02 am 09:02 Cloudy with Mist and Fog 34 1.1 31 -0.6 89 89 S 6 9 29.88 1012 6 10 0.01 0.25
9:53 am 09:53 Cloudy 35 1.7 32 0 89 89 S 6 9 29.86 1011 8 13 0.02 0.51
10:27 am 10:27 Cloudy 35 1.7 32 0 89 89 SSW 6 9 29.88 1012 8 13 0.00 0.00
10:53 am 10:53 Cloudy 35 1.7 32 0 89 89 SSW 7 11 29.87 1011 8 13 0.00 0.00
11:53 am 11:53 Cloudy 38 3.3 34 1.1 86 86 SW 8 13 29.85 1011 8 13 0.00 0.00
12:02 pm 12:02 Cloudy 38 3.3 34 1.1 86 86 SW 7 11 29.85 1011 8 13 0.00 0.00
12:53 pm 12:53 Cloudy 40 4.4 36 2.2 86 86 WSW 9 15 29.82 1010 10 16 0.00 0.00
1:02 pm 13:02 Cloudy 40 4.4 35 1.7 83 83 W 8 13 29.83 1010 10 16 0.00 0.00
1:53 pm 13:53 Cloudy 40 4.4 34 1.1 79 79 W 8 13 29.81 1010 10 16 0.00 0.00
2:09 pm 14:09 Cloudy 40 4.4 35 1.7 83 83 WSW 8 13 29.83 1010 10 16 0.00 0.00
2:35 pm 14:35 Cloudy 40 4.4 34 1.1 79 79 W 6 9 29.83 1010 10 16 0.00 0.00
2:53 pm 14:53 Cloudy 40 4.4 34 1.1 79 79 W 7 11 29.82 1010 10 16 0.00 0.00
3:37 pm 15:37 Cloudy 40 4.4 34 1.1 79 79 WNW 12 19 29.85 1011 10 16 0.00 0.00
3:53 pm 15:53 Cloudy 40 4.4 34 1.1 79 79 W 10 17 29.85 1011 10 16 0.00 0.00
4:53 pm 16:53 Cloudy 39 3.9 33 0.6 79 79 W 7 11 29.88 1012 9 14 0.00 0.00
5:07 pm 17:07 Cloudy 39 3.9 33 0.6 79 79 W 7 11 29.91 1013 9 14 0.00 0.00
5:53 pm 17:53 Cloudy 39 3.9 33 0.6 79 79 SSW 5 7 29.89 1012 8 13 0.00 0.00
6:53 pm 18:53 Cloudy 39 3.9 33 0.6 79 79 WNW 15 24 29.94 1014 10 16 0.00 0.00
7:53 pm 19:53 Cloudy 33 0.6 27 -2.8 78 78 NW 20 31 30.02 1017 9 14 0.00 0.00
8:02 pm 20:02 Cloudy 32 0 26 -3.3 79 79 WNW 13 20 30.06 1018 8 13 0.00 0.00
8:31 pm 20:31 Cloudy 31 -0.6 24 -4.4 76 76 WNW 12 19 30.09 1019 10 16 0.00 0.00
8:53 pm 20:53 Cloudy 30 -1.1 24 -4.4 79 79 WNW 12 19 30.05 1018 10 16 0.00 0.00
9:02 pm 21:02 Cloudy 30 -1.1 23 -5 75 75 WNW 14 22 30.09 1019 10 16 0.00 0.00
9:50 pm 21:50 Cloudy with Light Snow 28 -2 23 -5 80 80 WNW 14 22 30.15 1021 2 3 0.00 0.03
9:53 pm 21:53 Cloudy with Light Snow 28 -2.2 23 -5 81 81 NW 14 22 30.11 1020 2 2 0.00 0.03
10:02 pm 22:02 Cloudy with Light Snow 27 -2.8 22 -5.6 81 81 NW 9 15 30.15 1021 2 3 0.00 0.03
10:08 pm 22:08 Cloudy with Light Snow 27 -2.8 21 -6.1 78 78 WNW 9 15 30.15 1021 5 8 0.00 0.03
10:38 pm 22:38 Cloudy 27 -2.8 19 -7.2 72 72 NW 9 15 30.18 1022 10 16 0.00 0.03
10:53 pm 22:53 Cloudy 27 -2.8 18 -7.8 69 69 NW 14 22 30.15 1021 10 16 0.00 0.03
11:51 pm 23:51 Mostly Cloudy 27 -3 18 -8 69 69 NNW 9 15 30.21 1023 10 16 0.00 0.00
11:53 pm 23:53 Mostly Cloudy 26 -3.3 17 -8.3 69 69 NNW 10 17 30.18 1022 10 16 0.00 0.00

Powered by AerisWeather